User: anonymous   Login
Location: Burgberg
(50.1428°N, 11.0671°E)
Time: 20:56:46
(UTC+00:00)
Language:

Cosmos 1726 Rocket - Orbit

View from above orbital plane
View from above orbital plane
View from above satellite
View from above satellite

Ground track
Ground track

The orbit data is extracted from the following two-line orbital elements,

1 16496U 86006B   20088.25678817 +.00000057 +00000-0 +40030-5 0  9992
2 16496 082.5245 138.2111 0018236 322.9743 105.8349 14.84135126826800
Epoch (UTC): 28 March 2020 06:09:46
Eccentricity: 0.0018236
inclination: 82.5245°
perigee height: 603 km
apogee height: 629 km
right ascension of ascending node: 138.2111°
argument of perigee: 322.9743°
revolutions per day: 14.84135126
mean anomaly at epoch: 105.8349°
orbit number at epoch: 82680

The dashed part of the orbit path shows where the satellite is in the earth's shadow,  

DLR